Weather History for Millington, TN

Change the Weather History Date:

Saturday, March 22, 2014

  Actual Average Record
Temperature  
Mean Temperature 60 °F -  
Max Temperature 64 °F 62 °F 80 °F (2007)
Min Temperature 55 °F 44 °F 24 °F (2006)
Degree Days  
Heating Degree Days 6    
Growing Degree Days 10 (Base 50)    
Moisture  
Dew Point 43 °F    
Average Humidity 56    
Maximum Humidity 72    
Minimum Humidity 42    
Precipitation  
Precipitation 0.00 in - - ()
Sea Level Pressure  
Sea Level Pressure 30.02 in    
Wind  
Wind Speed 5 mph (North)    
Max Wind Speed 16 mph    
Max Gust Speed 21 mph    
Visibility 10 miles    
Events      
Averages and records for this station are not official NWS values.
T = Trace of Precipitation, MM = Missing Value Source: NWS Daily Summary

Daily Weather History Graph

Daily Weather History Graph

Search for Another Location

Airport:

Trip Planner

Search our weather history database for the weather conditions in past years. The results will help you decide how hot, cold, wet, or windy it might be!

Date:

Astronomy

Mar. 22, 2014 Rise Set
Actual Time 7:00 AM CDT 7:12 PM CDT
Civil Twilight 6:34 AM CDT 7:38 PM CDT
Nautical Twilight 6:05 AM CDT 8:07 PM CDT
Astronomical Twilight 5:35 AM CDT 8:38 PM CDT
Moon 12:22 AM CDT (3/22) 10:54 AM CDT (3/22)
Length of Visible Light 13h 03m
Length of Day
12h 12m
Waning Gibbous, 65% of the Moon is Illuminated
Mar 22
Waning Gibbous
Mar 23
Last Quarter
Mar 30
New
Apr 7
First Quarter
Apr 15
Full

Hourly Weather History & Observations

Time (CDT) Temp. Dew Point Humidity Pressure Visibility Wind Dir Wind Speed Gust Speed Precip Events Conditions
12:50 AM 55.4 °F 42.8 °F 63% 29.95 in 10.0 mi Calm Calm - N/A   Mostly Cloudy
1:50 AM 55.4 °F 44.6 °F 67% 29.95 in 10.0 mi SE 3.5 mph - N/A   Mostly Cloudy
2:15 AM 55.4 °F 44.6 °F 67% 29.95 in 10.0 mi Calm Calm - N/A   Mostly Cloudy
2:35 AM 55.4 °F 42.8 °F 63% 29.95 in 10.0 mi Calm Calm - N/A   Scattered Clouds
2:55 AM 55.4 °F 42.8 °F 63% 29.94 in 10.0 mi Calm Calm - N/A   Overcast
3:15 AM 55.4 °F 46.4 °F 72% 29.94 in 10.0 mi Calm Calm - N/A   Overcast
3:35 AM 57.2 °F 44.6 °F 63% 29.94 in 10.0 mi Calm Calm - N/A   Overcast
3:55 AM 57.2 °F 46.4 °F 67% 29.96 in 10.0 mi NW 16.1 mph 20.7 mph N/A   Overcast
4:15 AM 60.8 °F 44.6 °F 55% 29.97 in 10.0 mi NNW 4.6 mph - N/A   Overcast
4:35 AM 60.8 °F 46.4 °F 59% 29.97 in 10.0 mi Calm Calm - N/A   Overcast
4:55 AM 60.8 °F 44.6 °F 55% 29.96 in 10.0 mi NNW 3.5 mph - N/A   Overcast
5:30 AM 60.8 °F 46.4 °F 59% 29.98 in 10.0 mi Variable 4.6 mph - N/A   Overcast
5:50 AM 60.8 °F 46.4 °F 59% 30.00 in 10.0 mi NNW 9.2 mph - N/A   Overcast
6:50 AM 57.2 °F 44.6 °F 63% 30.03 in 10.0 mi ENE 3.5 mph - N/A   Overcast
7:50 AM 55.4 °F 42.8 °F 63% 30.06 in 10.0 mi NNE 6.9 mph - N/A   Mostly Cloudy
8:50 AM 57.2 °F 39.2 °F 51% 30.07 in 10.0 mi NNE 12.7 mph - N/A   Mostly Cloudy
9:50 AM 57.2 °F 41.0 °F 55% 30.10 in 10.0 mi NNE 12.7 mph - N/A   Mostly Cloudy
10:50 AM 60.8 °F 39.2 °F 45% 30.11 in 10.0 mi NNE 12.7 mph - N/A   Scattered Clouds
11:50 AM 62.6 °F 39.2 °F 42% 30.10 in 10.0 mi North 12.7 mph - N/A   Partly Cloudy
12:50 PM 64.4 °F 42.8 °F 45% 30.09 in 10.0 mi NNE 8.1 mph - N/A   Clear
1:50 PM 64.4 °F 42.8 °F 45% 30.08 in 10.0 mi NNE 11.5 mph - N/A   Clear
2:50 PM 64.4 °F 44.6 °F 49% 30.07 in 10.0 mi North 11.5 mph - N/A   Clear
3:50 PM 64.4 °F 44.6 °F 49% 30.07 in 10.0 mi North 12.7 mph - N/A   Clear
5:50 PM 59.0 °F 37.4 °F 45% 30.09 in 10.0 mi North 11.5 mph - N/A   Partly Cloudy
6:50 PM 57.2 °F 37.4 °F 48% 30.09 in 10.0 mi North 12.7 mph - N/A   Scattered Clouds